This demonstration page uses our WeatherBlox Daily Observations layout. Learn more.

Left ArrowRight Arrow

39.51506, -84.39828

Hourly Observations for May 16, 2021

Temp ( °F °C ) Dew Point ( °F °C ) Humidity (%) Winds ( mph kmh ) Pressure ( in mb ) Visibility ( mi km ) Precip ( " mm )
12:15 am 00:15 Cloudy 57 13.9 51 10.5 80 80 N 3 6 30.19 1022 10 16.0934 N/A
12:35 am 00:35 Cloudy 59 14.8 48 9 68 68 ESE 6 9 30.19 1022 10 16.0934 N/A
12:55 am 00:55 Cloudy 58 14.4 50 10 75 75 NNE 3 6 30.19 1022 10 16.0934 N/A
1:15 am 01:15 Cloudy 59 15 46 7.7 62 62 NNW 3 6 30.2 1023 10 16.0934 N/A
1:35 am 01:35 Cloudy 57 14.1 48 9.1 72 72 N N/A 30.2 1023 10 16.0934 N/A
1:55 am 01:55 Cloudy 58 14.5 48 8.9 69 69 N N/A 30.2 1023 10 16.0934 N/A
2:15 am 02:15 Cloudy 60 15.7 46 7.6 59 59 NE 5 7 30.19 1023 10 16.0934 N/A
2:35 am 02:35 Cloudy 59 15 45 7 59 59 NE 7 11 30.2 1023 10 16.0934 N/A
2:55 am 02:55 Cloudy 58 14.2 47 8.6 69 69 N 3 6 30.2 1023 10 16.0934 N/A
3:15 am 03:15 Cloudy 56 13.5 50 10.2 81 81 WSW 5 7 30.2 1023 10 16.0934 N/A
3:35 am 03:35 Cloudy 57 13.8 50 9.9 78 78 W 5 7 30.21 1023 10 16.0934 N/A
3:55 am 03:55 Cloudy 58 14.2 50 9.9 76 76 ENE 5 7 30.2 1023 10 16.0934 N/A
4:15 am 04:15 Cloudy 56 13.6 50 10.2 80 80 N N/A 30.2 1023 10 16.0934 N/A
4:35 am 04:35 Mostly Cloudy with Light Rain 56 13.3 51 10.3 82 82 N N/A 30.21 1023 10 16.0934 N/A
4:55 am 04:55 Mostly Cloudy with Light Rain 56 13.1 52 10.9 87 87 NE 3 6 30.21 1023 10 16.0934 N/A
5:15 am 05:15 Cloudy with Light Rain 55 12.5 52 11.2 92 92 NE 6 9 30.21 1023 10 16.0934 N/A
5:35 am 05:35 Cloudy 54 12.1 52 11.3 95 95 NNE 3 6 30.21 1023 10 16.0934 N/A
5:55 am 05:55 Cloudy 54 12.4 51 10.8 90 90 NNE 3 6 30.21 1023 10 16.0934 N/A
6:15 am 06:15 Cloudy 54 12.4 51 10.7 89 89 N N/A 30.21 1023 10 16.0934 N/A
6:35 am 06:35 Cloudy 55 12.6 52 11.3 92 92 N N/A 30.22 1023 10 16.0934 N/A
6:55 am 06:55 Cloudy with Light Rain 55 12.6 53 11.5 93 93 NE 6 9 30.22 1023 10 16.0934 N/A
7:15 am 07:15 Cloudy with Light Rain 55 13 51 10.7 86 86 NNE 5 7 30.23 1024 10 16.0934 N/A
7:35 am 07:35 Cloudy 56 13.2 52 11 87 87 N 3 6 30.24 1024 10 16.0934 N/A
7:55 am 07:55 Cloudy 57 13.7 52 11.1 84 84 N N/A 30.24 1024 10 16.0934 N/A
8:15 am 08:15 Cloudy 57 13.9 54 12 88 88 N N/A 30.25 1024 10 16.0934 N/A
8:35 am 08:35 Cloudy with Light Rain 58 14.3 52 11.3 82 82 SW 7 11 30.26 1025 10 16.0934 N/A
8:55 am 08:55 Cloudy 58 14.5 52 11 80 80 SW 3 6 30.26 1025 10 16.0934 N/A
9:15 am 09:15 Cloudy 59 15.1 49 9.7 70 70 S 3 6 30.26 1025 10 16.0934 N/A
9:35 am 09:35 Cloudy 60 15.3 48 8.9 66 66 S 7 11 30.27 1025 10 16.0934 N/A
9:55 am 09:55 Cloudy with Light Rain 60 15.4 48 8.9 65 65 SSW 3 6 30.27 1025 10 16.0934 N/A
10:15 am 10:15 Cloudy with Light Rain 60 15.3 50 10.1 71 71 SSE 3 6 30.27 1025 10 16.0934 N/A
10:35 am 10:35 Cloudy 61 16 48 9.1 64 64 S 6 9 30.26 1025 10 16.0934 N/A
10:55 am 10:55 Mostly Cloudy 63 17 50 9.9 63 63 S 8 13 30.25 1024 10 16.0934 N/A
11:15 am 11:15 Mostly Cloudy 64 18 48 8.9 55 55 SSE 8 13 30.25 1024 10 16.0934 N/A
11:35 am 11:35 Partly Cloudy 65 18.3 47 8.4 53 53 SSE 9 15 30.25 1024 10 16.0934 N/A
11:55 am 11:55 Partly Cloudy 66 19 48 9 52 52 S 9 15 30.25 1024 10 16.0934 N/A
12:15 pm 12:15 Partly Cloudy 67 19.6 48 8.8 50 50 S 9 15 30.24 1024 10 16.0934 N/A
12:35 pm 12:35 Cloudy 67 19.7 46 7.9 47 47 S 14 22 30.24 1024 10 16.0934 N/A
12:55 pm 12:55 Cloudy 68 20.1 47 8.3 47 47 SSE 7 11 30.22 1024 10 16.0934 N/A
1:15 pm 13:15 Partly Cloudy 69 20.4 47 8.5 46 46 SSE 10 17 30.21 1023 10 16.0934 N/A
1:35 pm 13:35 Partly Cloudy 69 20.8 47 8.2 44 44 SSE 5 7 30.21 1023 10 16.0934 N/A
1:55 pm 13:55 Partly Cloudy 69 20.6 45 7 41 41 ESE 5 7 30.21 1023 10 16.0934 N/A
2:15 pm 14:15 Partly Cloudy 69 20.7 49 9.4 48 48 W 8 13 30.2 1023 10 16.0934 N/A
2:35 pm 14:35 Sunny 70 21 47 8.6 45 45 W 5 7 30.19 1022 10 16.0934 N/A
2:55 pm 14:55 Mostly Cloudy 69 20.8 48 8.9 47 47 W 6 9 30.19 1022 10 16.0934 N/A
3:15 pm 15:15 Cloudy 70 21.2 49 9.2 46 46 WSW 8 13 30.19 1022 10 16.0934 N/A
3:35 pm 15:35 Cloudy 70 20.9 48 8.8 46 46 W 7 11 30.18 1022 10 16.0934 N/A
3:55 pm 15:55 Cloudy 69 20.8 48 8.8 46 46 W 8 13 30.17 1022 10 16.0934 N/A
4:15 pm 16:15 Cloudy 70 21.2 49 9.2 46 46 WSW 5 7 30.17 1022 10 16.0934 N/A
4:35 pm 16:35 Cloudy 70 21.1 49 9.2 47 47 SW 6 9 30.17 1022 10 16.0934 N/A
4:55 pm 16:55 Cloudy 70 21 49 9.2 47 47 W 7 11 30.17 1022 10 16.0934 N/A
5:15 pm 17:15 Cloudy 69 20.8 49 9.2 48 48 N N/A 30.17 1022 10 16.0934 N/A
5:35 pm 17:35 Cloudy 69 20.6 49 9.2 48 48 SSE 3 6 30.17 1022 10 16.0934 N/A
5:55 pm 17:55 Cloudy 69 20.6 49 9.5 49 49 WSW 6 9 30.17 1022 10 16.0934 N/A
6:15 pm 18:15 Cloudy 69 20.8 46 7.9 44 44 N N/A 30.16 1021 10 16.0934 N/A
6:35 pm 18:35 Cloudy 69 20.5 50 10.2 52 52 ESE 7 11 30.16 1021 10 16.0934 N/A
6:55 pm 18:55 Cloudy 68 20.2 49 9.3 50 50 SE 6 9 30.16 1021 10 16.0934 N/A
7:15 pm 19:15 Cloudy 68 19.9 50 9.9 53 53 SE 3 6 30.16 1021 10 16.0934 N/A
7:35 pm 19:35 Cloudy 68 20.1 49 9.4 50 50 SSE 5 7 30.16 1021 10 16.0934 N/A
7:55 pm 19:55 Cloudy 68 19.8 50 9.9 53 53 SSE 5 7 30.17 1022 10 16.0934 N/A
8:15 pm 20:15 Mostly Cloudy 67 19.4 50 10.2 55 55 S 5 7 30.17 1022 10 16.0934 N/A
8:35 pm 20:35 Cloudy 67 19.2 51 10.3 57 57 S 3 6 30.17 1022 10 16.0934 N/A
8:55 pm 20:55 Partly Cloudy 66 18.8 51 10.3 58 58 S 6 9 30.18 1022 10 16.0934 N/A
9:15 pm 21:15 Clear 65 18.2 52 10.9 63 63 N N/A 30.18 1022 10 16.0934 N/A
9:35 pm 21:35 Clear 61 15.9 54 12.2 79 79 N N/A 30.18 1022 10 16.0934 N/A
9:55 pm 21:55 Clear 60 15.6 55 12.6 82 82 N N/A 30.2 1023 10 16.0934 N/A
10:15 pm 22:15 Clear 58 14.4 55 12.9 91 91 N N/A 30.2 1023 10 16.0934 N/A
10:35 pm 22:35 Clear 57 13.9 55 13 94 94 NNW 3 6 30.21 1023 10 16.0934 N/A
10:55 pm 22:55 Clear 57 14.1 55 12.8 92 92 N N/A 30.21 1023 10 16.0934 N/A
11:15 pm 23:15 Clear 57 13.8 55 12.5 92 92 N N/A 30.21 1023 10 16.0934 N/A
11:35 pm 23:35 Clear with Mist and Fog 56 13.2 54 12.3 94 94 N N/A 30.2 1023 10 16.0934 N/A
11:55 pm 23:55 Clear 54 12.3 53 11.8 97 97 N N/A 30.2 1023 10 16.0934 N/A

Powered by AerisWeather